| time (UTC) | temp C | wind direction | speed KPH | gust KPH | rain 1hr cm | rain 24hr cm | rain mn cm | humidity % | barometer mb |
| 20260510021532 | 11 | 84 | 0.0 | 1.6 | 0.00 | 0.20 | 0.20 | 88 | 1012.8 |
| 20260510020031 | 12 | 84 | 0.0 | 0.0 | 0.00 | 0.20 | 0.20 | 87 | 1012.8 |
| 20260510014530 | 11 | 84 | 0.0 | 0.0 | 0.00 | 0.20 | 0.20 | 86 | 1012.5 |
| 20260510013029 | 12 | 84 | 0.0 | 0.0 | 0.00 | 0.20 | 0.20 | 85 | 1012.5 |
| 20260510011529 | 12 | 84 | 0.0 | 0.0 | 0.00 | 0.20 | 0.20 | 83 | 1012.3 |
| 20260510010029 | 13 | 84 | 0.0 | 0.0 | 0.00 | 0.20 | 0.20 | 83 | 1012.1 |
| 20260510004530 | 13 | 84 | 0.0 | 1.6 | 0.00 | 0.20 | 0.20 | 81 | 1012.0 |
| 20260510003028 | 14 | 96 | 0.0 | 3.2 | 0.00 | 0.20 | 0.20 | 80 | 1011.9 |
| 20260510001627 | 15 | 106 | 0.0 | 3.2 | 0.00 | 0.20 | 0.20 | 79 | 1011.7 |
| 20260510000033 | 15 | 88 | 0.0 | 3.2 | 0.00 | 0.20 | 0.20 | 77 | 1011.5 |
| 20260509234538 | 15 | 86 | 0.0 | 3.2 | 0.00 | 0.20 | 0.20 | 76 | 1011.4 |
| 20260509233025 | 16 | 77 | 0.0 | 6.4 | 0.00 | 0.20 | 0.20 | 74 | 1011.4 |
| 20260509231525 | 16 | 77 | 0.0 | 3.2 | 0.00 | 0.20 | 0.20 | 73 | 1011.3 |
| 20260509230025 | 16 | 91 | 0.0 | 4.8 | 0.00 | 0.20 | 0.20 | 72 | 1011.3 |
| 20260509224533 | 17 | 97 | 0.0 | 3.2 | 0.00 | 0.20 | 0.20 | 71 | 1011.5 |
| 20260509223023 | 17 | 101 | 0.0 | 3.2 | 0.00 | 0.20 | 0.20 | 71 | 1011.5 |
| 20260509221522 | 17 | 90 | 0.0 | 3.2 | 0.00 | 0.20 | 0.20 | 70 | 1011.5 |
| 20260509220020 | 17 | 86 | 1.6 | 4.8 | 0.00 | 0.20 | 0.20 | 71 | 1011.7 |
| 20260509214518 | 17 | 98 | 0.0 | 3.2 | 0.00 | 0.20 | 0.20 | 64 | 1011.6 |
| 20260509213017 | 17 | 98 | 0.0 | 4.8 | 0.00 | 0.20 | 0.20 | 64 | 1011.8 |
| 20260509211516 | 17 | 157 | 0.0 | 3.2 | 0.00 | 0.20 | 0.20 | 64 | 1012.0 |
| 20260509210015 | 17 | 253 | 0.0 | 3.2 | 0.00 | 0.20 | 0.20 | 65 | 1012.2 |
| 20260509204514 | 16 | 74 | 0.0 | 1.6 | 0.00 | 0.20 | 0.20 | 66 | 1012.1 |
| 20260509203013 | 16 | 74 | 1.6 | 4.8 | 0.00 | 0.20 | 0.20 | 66 | 1011.9 |
| 20260509201515 | 17 | 77 | 1.6 | 3.2 | 0.00 | 0.20 | 0.20 | 65 | 1011.9 |
| 20260509200012 | 17 | 102 | 0.0 | 3.2 | 0.00 | 0.20 | 0.20 | 67 | 1012.1 |
| 20260509194510 | 17 | 101 | 0.0 | 4.8 | 0.00 | 0.20 | 0.20 | 65 | 1012.2 |
| 20260509193012 | 17 | 236 | 0.0 | 4.8 | 0.00 | 0.20 | 0.20 | 64 | 1012.3 |
| 20260509191507 | 17 | 85 | 1.6 | 4.8 | 0.00 | 0.20 | 0.20 | 67 | 1012.5 |
| 20260509190010 | 17 | 252 | 1.6 | 11.3 | 0.00 | 0.20 | 0.20 | 67 | 1012.6 |
| 20260509184502 | 17 | 86 | 1.6 | 6.4 | 0.00 | 0.20 | 0.20 | 70 | 1012.9 |
| 20260509183111 | 16 | 280 | 1.6 | 8.0 | 0.00 | 0.20 | 0.20 | 74 | 1013.1 |
| 20260509181610 | 15 | 84 | 0.0 | 14.5 | 0.00 | 0.20 | 0.20 | 78 | 1013.3 |
| 20260509180113 | 14 | 79 | 0.0 | 4.8 | 0.00 | 0.20 | 0.20 | 80 | 1013.6 |
| 20260509174554 | 13 | 79 | 3.2 | 8.0 | 0.00 | 0.20 | 0.20 | 81 | 1013.7 |
| 20260509173107 | 13 | 78 | 0.0 | 3.2 | 0.00 | 0.20 | 0.20 | 81 | 1013.6 |
| 20260509171553 | 13 | 96 | 0.0 | 3.2 | 0.00 | 0.20 | 0.20 | 82 | 1013.8 |
| 20260509170054 | 13 | 80 | 0.0 | 1.6 | 0.00 | 0.20 | 0.20 | 80 | 1013.6 |
| 20260509164550 | 13 | 80 | 0.0 | 1.6 | 0.00 | 0.20 | 0.20 | 81 | 1013.8 |
| 20260509163048 | 13 | 108 | 0.0 | 3.2 | 0.00 | 0.20 | 0.20 | 82 | 1014.2 |
| 20260509161559 | 13 | 299 | 0.0 | 4.8 | 0.03 | 0.20 | 0.20 | 80 | 1014.3 |
| 20260509160048 | 13 | 87 | 0.0 | 3.2 | 0.10 | 0.20 | 0.20 | 85 | 1014.1 |
| 20260509154546 | 12 | 89 | 0.0 | 1.6 | 0.18 | 0.20 | 0.20 | 86 | 1013.9 |
| 20260509153054 | 12 | 257 | 0.0 | 1.6 | 0.20 | 0.20 | 0.20 | 85 | 1013.7 |
| 20260509151551 | 12 | 259 | 0.0 | 0.0 | 0.18 | 0.18 | 0.18 | 81 | 1014.1 |
| 20260509150043 | 13 | 259 | 0.0 | 0.0 | 0.10 | 0.10 | 0.10 | 77 | 1014.5 |
| 20260509144542 | 13 | 259 | 0.0 | 0.0 | 0.03 | 0.03 | 0.03 | 75 | 1014.4 |
| 20260509143042 | 13 | 259 | 0.0 | 0.0 | 0.00 | 0.00 | 0.00 | 75 | 1014.6 |
| 20260509141544 | 13 | 259 | 0.0 | 1.6 | 0.00 | 0.00 | 0.00 | 73 | 1014.5 |
| 20260509140039 | 13 | 259 | 0.0 | 1.6 | 0.00 | 0.00 | 0.00 | 69 | 1014.3 |
| 20260509134539 | 13 | 228 | 0.0 | 1.6 | 0.00 | 0.00 | 0.00 | 67 | 1013.9 |
| 20260509133042 | 13 | 260 | 0.0 | 1.6 | 0.00 | 0.00 | 0.00 | 69 | 1013.9 |
| 20260509131530 | 13 | 10 | 0.0 | 3.2 | 0.00 | 0.00 | 0.00 | 68 | 1013.7 |
| 20260509130028 | 12 | 65 | 0.0 | 4.8 | 0.00 | 0.00 | 0.00 | 68 | 1013.7 |
| 20260509124526 | 12 | 258 | 0.0 | 1.6 | 0.00 | 0.00 | 0.00 | 70 | 1013.6 |
| 20260509123029 | 12 | 258 | 0.0 | 0.0 | 0.00 | 0.00 | 0.00 | 73 | 1013.7 |
| 20260509121525 | 12 | 258 | 0.0 | 0.0 | 0.00 | 0.00 | 0.00 | 73 | 1014.0 |
| 20260509120024 | 12 | 258 | 0.0 | 0.0 | 0.00 | 0.00 | 0.00 | 73 | 1013.7 |
| 20260509114521 | 11 | 258 | 0.0 | 1.6 | 0.00 | 0.00 | 0.00 | 77 | 1013.7 |
| 20260509113020 | 11 | 180 | 0.0 | 1.6 | 0.00 | 0.00 | 0.00 | 79 | 1013.2 |
| 20260509111519 | 11 | 87 | 0.0 | 0.0 | 0.00 | 0.00 | 0.00 | 79 | 1013.3 |
| 20260509110018 | 11 | 87 | 0.0 | 0.0 | 0.00 | 0.00 | 0.00 | 81 | 1013.2 |
| 20260509104518 | 10 | 87 | 0.0 | 0.0 | 0.00 | 0.00 | 0.00 | 81 | 1013.2 |
| 20260509103017 | 10 | 87 | 0.0 | 1.6 | 0.00 | 0.00 | 0.00 | 80 | 1013.0 |
| 20260509101527 | 10 | 87 | 0.0 | 0.0 | 0.00 | 0.00 | 0.00 | 80 | 1012.9 |
| 20260509100015 | 10 | 87 | 0.0 | 0.0 | 0.00 | 0.00 | 0.00 | 82 | 1012.9 |
| 20260509094518 | 10 | 87 | 0.0 | 0.0 | 0.00 | 0.00 | 0.00 | 83 | 1012.9 |
| 20260509093013 | 10 | 87 | 0.0 | 0.0 | 0.00 | 0.00 | 0.00 | 82 | 1012.9 |
| 20260509091516 | 10 | 87 | 0.0 | 0.0 | 0.00 | 0.00 | 0.00 | 81 | 1013.0 |
| 20260509090011 | 10 | 87 | 0.0 | 0.0 | 0.00 | 0.00 | 0.00 | 81 | 1013.2 |
| 20260509084509 | 10 | 87 | 0.0 | 0.0 | 0.00 | 0.00 | 0.00 | 80 | 1013.4 |
| 20260509083008 | 10 | 87 | 0.0 | 0.0 | 0.00 | 0.00 | 0.00 | 81 | 1013.4 |
| 20260509081516 | 10 | 87 | 0.0 | 0.0 | 0.00 | 0.00 | 0.00 | 80 | 1013.5 |
| 20260509080006 | 10 | 87 | 0.0 | 0.0 | 0.00 | 0.00 | 0.00 | 80 | 1013.6 |
| 20260509074506 | 10 | 87 | 0.0 | 0.0 | 0.00 | 0.00 | 0.00 | 79 | 1013.5 |
| 20260509073013 | 10 | 87 | 0.0 | 0.0 | 0.00 | 0.00 | 0.00 | 78 | 1013.5 |
| 20260509071505 | 10 | 87 | 0.0 | 0.0 | 0.00 | 0.00 | 0.00 | 78 | 1013.6 |
| 20260509070006 | 10 | 87 | 0.0 | 0.0 | 0.00 | 0.00 | 0.00 | 77 | 1013.6 |
| 20260509064501 | 10 | 87 | 0.0 | 0.0 | 0.00 | 0.00 | 0.00 | 75 | 1013.6 |
| 20260509063111 | 11 | 87 | 0.0 | 0.0 | 0.00 | 0.00 | 0.00 | 74 | 1013.7 |
| 20260509061616 | 11 | 87 | 0.0 | 1.6 | 0.00 | 0.00 | 0.00 | 71 | 1013.7 |
| 20260509060107 | 12 | 87 | 0.0 | 6.4 | 0.00 | 0.00 | 0.00 | 70 | 1013.6 |
| 20260509054554 | 12 | 72 | 1.6 | 4.8 | 0.00 | 0.00 | 0.00 | 70 | 1013.7 |
| 20260509053052 | 11 | 95 | 0.0 | 3.2 | 0.00 | 0.00 | 0.00 | 73 | 1014.0 |
| 20260509051550 | 11 | 269 | 0.0 | 1.6 | 0.00 | 0.00 | 0.00 | 76 | 1014.4 |
| 20260509050049 | 11 | 246 | 0.0 | 1.6 | 0.00 | 0.00 | 0.00 | 74 | 1014.4 |
| 20260509044546 | 11 | 246 | 0.0 | 0.0 | 0.00 | 0.00 | 0.00 | 74 | 1014.4 |
| 20260509043043 | 11 | 246 | 0.0 | 1.6 | 0.00 | 0.00 | 0.00 | 73 | 1014.5 |
| 20260509041541 | 12 | 246 | 0.0 | 1.6 | 0.00 | 0.00 | 0.00 | 70 | 1014.5 |
| 20260509040038 | 12 | 246 | 0.0 | 0.0 | 0.00 | 0.00 | 0.00 | 67 | 1014.6 |
| 20260509034538 | 12 | 246 | 0.0 | 0.0 | 0.00 | 0.00 | 0.00 | 65 | 1014.6 |
| 20260509033037 | 12 | 246 | 0.0 | 1.6 | 0.00 | 0.00 | 0.00 | 66 | 1014.7 |
| 20260509031537 | 13 | 241 | 0.0 | 1.6 | 0.00 | 0.00 | 0.00 | 68 | 1014.8 |
| 20260509030041 | 13 | 60 | 0.0 | 0.0 | 0.00 | 0.00 | 0.00 | 66 | 1014.7 |
| 20260509024538 | 13 | 60 | 0.0 | 0.0 | 0.00 | 0.00 | 0.00 | 65 | 1015.0 |
| 20260509023034 | 13 | 60 | 0.0 | 1.6 | 0.00 | 0.00 | 0.00 | 62 | 1014.6 |